Weather observations for the past three days for
Cumberland
Metric (Imperial)
Date Time (cdt) Wind (kph) Vis. (km) Weather Sky Cond. Temperature (ºC) Relative Humidity Wind Chill (°C) Heat Index (°C) Pressure Precipitation (cm)
Air Dwpt 6 hour altimeter (cm) sea level (mb) 1 hr 3 hr 6 hr
Max. Min.
04 08:35 W 31 G 48 16.09 Fair CLR 15 4 48% 74.63 0.0
04 08:15 W 35 G 46 16.09 Fair and Breezy CLR 15 3 45% 74.6 0.0
04 07:55 W 28 G 39 16.09 Partly Cloudy SCT120 15 3 45% 74.6 0.0
04 07:35 W 26 G 41 16.09 Fair CLR 15 2 42% 74.6 0.0
04 07:15 W 31 G 43 16.09 Partly Cloudy SCT110 14 2 44% 74.57 0.0
04 06:55 SW 28 G 41 16.09 Mostly Cloudy BKN110 14 2 44% 74.55 0.0
04 06:35 SW 22 16.09 Mostly Cloudy BKN110 13 2 47% 74.57 0.0
04 06:15 SW 24 G 33 16.09 Partly Cloudy SCT090 SCT110 12 2 51% 74.55 0.0
04 05:55 SW 19 16.09 Overcast SCT090 OVC110 12 2 51% 74.6 0.0
04 05:35 SW 20 16.09 Mostly Cloudy BKN110 12 2 51% 74.6 0.0
04 05:15 SW 22 16.09 Partly Cloudy SCT110 12 2 51% 74.63 0.0
04 04:55 SW 22 16.09 Partly Cloudy SCT110 12 1 47% 74.65 0.0
04 04:15 SW 20 16.09 Fair CLR 12 2 51% 74.73 0.0
04 03:55 SW 19 16.09 Fair CLR 12 2 51% 74.73 0.0
04 03:35 SW 20 16.09 Fair CLR 12 2 51% 74.75 0.0
04 03:15 SW 20 16.09 Fair CLR 12 2 51% 74.78 0.0
04 02:55 SW 19 16.09 Fair CLR 11 2 54% 74.83 0.0
04 02:35 SW 19 16.09 Fair CLR 11 2 54% 74.85 0.0
04 02:15 SW 19 16.09 Fair CLR 11 2 54% 74.9 0.0
04 01:55 SW 17 16.09 Fair CLR 11 2 54% 74.93 0.0
04 01:35 SW 17 16.09 Fair CLR 11 2 54% 74.96 0.0
04 01:15 SW 17 16.09 Fair CLR 11 2 54% 74.98 0.0
04 00:55 SW 17 16.09 Fair CLR 11 2 54% 75.01 0.0
04 00:35 SW 11 16.09 Fair CLR 10 2 58% 9 75.03 0.0
04 00:15 SW 6 16.09 Fair CLR 9 2 62% 75.08 0.0
03 23:55 SW 11 16.09 Fair CLR 8 3 71% 6 75.11 0.0
03 23:35 S 7 16.09 Fair CLR 8 3 71% 7 75.13 0.0
03 23:15 SW 7 16.09 Fair CLR 8 3 71% 7 75.16 0.0
03 22:55 SW 7 16.09 Fair CLR 10 2 58% 9 75.18 0.0
03 22:35 SW 9 16.09 Fair CLR 11 2 54% 75.23 0.0
03 22:15 SW 7 16.09 Fair CLR 11 3 58% 75.26 0.0
03 21:55 SW 6 16.09 Fair CLR 10 3 62% 75.26 0.0
03 21:35 SW 6 16.09 Fair CLR 11 3 58% 75.26 0.0
03 21:15 SW 6 16.09 Fair CLR 12 3 54% 75.29 0.0
03 20:55 SW 6 16.09 Fair CLR 13 2 47% 75.29 0.0
03 20:35 S 7 16.09 Fair CLR 13 3 51% 75.29 0.0
03 20:15 SW 6 16.09 Fair CLR 14 3 48% 75.29 0.0
03 19:55 SW 7 16.09 Fair CLR 15 2 42% 75.29 0.0
03 19:35 W 9 16.09 Fair CLR 16 0 34% 75.31 0.0
03 19:15 W 20 16.09 Fair CLR 17 0 32% 75.31 0.0
03 18:50 W 24 16.09 Fair CLR 18 0 30% 75.31 0.0
03 18:35 W 26 G 35 16.09 Fair CLR 18 0 30% 75.31 0.0
03 18:15 NW 19 16.09 Fair CLR 19 0 28% 75.31 0.0
03 17:55 W 15 G 28 16.09 Fair CLR 20 -1 24% 75.31 0.0
03 17:35 NW 17 G 37 16.09 Fair CLR 20 -1 24% 75.31 0.0
03 17:15 W 24 16.09 Fair CLR 20 -1 24% 75.31 0.0
03 16:55 NW 22 G 28 16.09 Fair CLR 20 -2 23% 75.31 0.0
03 16:35 NW 22 G 35 16.09 Fair CLR 20 -2 23% 75.31 0.0
03 16:15 NW 19 16.09 Fair CLR 20 -1 24% 75.31 0.0
03 15:55 W 31 G 37 16.09 Fair CLR 20 -1 24% 75.31 0.0
03 15:35 NW 20 G 37 16.09 Fair CLR 20 0 26% 75.34 0.0
03 15:15 NW 28 G 33 16.09 Fair CLR 20 0 26% 75.34 0.0
03 14:55 NW 24 16.09 Fair CLR 20 0 26% 75.34 0.0
03 14:35 NW 26 16.09 Fair CLR 20 1 28% 75.34 0.0
03 14:15 NW 20 G 41 16.09 Fair CLR 20 2 30% 75.36 0.0
03 13:35 NW 20 16.09 Fair CLR 20 3 33% 75.39 0.0
03 13:15 NW 22 G 39 16.09 Fair CLR 19 3 35% 75.39 0.0
03 12:55 NW 26 G 35 16.09 Fair CLR 19 5 40% 75.39 0.0
03 12:35 NW 24 G 35 16.09 Fair CLR 19 5 40% 75.41 0.0
03 12:15 NW 17 G 26 16.09 Fair CLR 18 4 40% 75.41 0.0
03 11:55 NW 15 G 28 16.09 Fair CLR 18 4 40% 75.41 0.0
03 11:35 NW 19 G 30 16.09 Fair CLR 18 4 40% 75.41 0.0
03 11:15 N 13 16.09 Fair CLR 18 3 37% 75.41 0.0
03 10:55 N 19 G 26 16.09 Fair CLR 17 5 45% 75.41 0.0
03 10:35 N 15 16.09 Fair CLR 17 5 45% 75.41 0.0
03 10:10 NW 19 G 28 16.09 Fair CLR 16 5 48% 75.41 0.0
03 09:55 NW 15 16.09 Fair CLR 16 4 45% 75.41 0.0
03 09:35 W 11 16.09 Fair CLR 15 5 51% 75.41 0.0
03 09:15 W 11 16.09 Fair CLR 15 5 51% 75.41 0.0
03 08:55 SW 9 16.09 Fair CLR 13 5 59% 75.41 0.0
03 08:35 SW 11 16.09 Fair CLR 13 6 63% 75.44 0.0
03 08:15 SW 9 16.09 Fair CLR 12 6 67% 75.44 0.0
03 07:35 S 6 16.09 Fair CLR 11 6 72% 75.41 0.0
03 07:15 S 6 16.09 Fair CLR 10 6 76% 75.41 0.0
03 06:55 S 9 16.09 Fair CLR 10 5 71% 9 75.41 0.0
03 06:35 S 7 16.09 Fair CLR 8 5 82% 7 75.41 0.0
03 06:15 S 9 16.09 Fair CLR 8 5 82% 7 75.39 0.0
03 05:55 S 9 16.09 Partly Cloudy SCT100 8 6 87% 7 75.41 0.0
03 05:35 S 7 16.09 Mostly Cloudy SCT090 BKN100 10 6 76% 9 75.41 0.0
03 05:15 SE 6 16.09 Overcast BKN090 OVC110 10 7 82% 75.41 0.0
03 04:55 SE 9 16.09 Overcast BKN090 OVC100 10 6 76% 9 75.44 0.0
03 04:35 SE 6 16.09 Overcast OVC090 11 6 72% 75.44 0.0
03 04:15 E 7 16.09 Light Rain SCT060 SCT070 OVC090 11 6 72% 75.46 0.0
03 03:55 SW 20 G 28 11.27 Light Rain SCT017 BKN090 OVC110 10 6 76% 8 75.46 0.0
03 03:35 W 7 16.09 Rain OVC100 11 5 67% 75.51 0.0
03 03:15 S 15 16.09 Light Rain SCT060 BKN070 OVC100 10 5 71% 8 75.49 0.0
03 02:55 S 7 16.09 Overcast SCT070 OVC080 10 5 71% 9 75.51 0.0
03 02:35 Calm 16.09 Overcast OVC080 10 5 71% 75.54 0.0
03 02:15 Calm 16.09 Mostly Cloudy SCT080 BKN100 10 5 71% 75.54 0.0
03 01:55 SE 6 16.09 Mostly Cloudy BKN100 10 5 71% 75.57 0.0
03 01:35 S 9 16.09 Overcast OVC090 11 5 67% 75.57 0.0
03 01:15 SE 7 16.09 Mostly Cloudy BKN090 12 4 58% 75.59 0.0
03 00:55 SE 9 16.09 Mostly Cloudy SCT060 SCT070 BKN090 12 5 63% 75.59 0.0
03 00:35 SE 9 16.09 Overcast BKN070 OVC080 12 5 63% 75.64 0.0
03 00:15 Calm 16.09 Overcast BKN080 BKN090 OVC110 12 5 63% 75.64 0.0
02 23:55 Calm 16.09 Overcast SCT060 OVC110 13 5 59% 75.67 0.0
02 23:35 W 17 16.09 Light Rain SCT060 SCT080 OVC090 13 4 55% 75.69 0.0
02 23:15 W 13 16.09 Overcast SCT075 OVC100 13 3 51% 75.72 0.0
02 22:55 SW 11 16.09 Overcast OVC075 12 6 67% 75.72 0.0
02 22:35 S 9 16.09 Overcast BKN075 OVC110 13 5 59% 75.72 0.0
02 22:15 SW 7 16.09 Overcast BKN075 OVC085 13 4 55% 75.74 0.0
02 21:55 W 7 16.09 Overcast OVC075 14 3 48% 75.74 0.0
02 21:35 Calm 16.09 Overcast OVC075 13 5 59% 75.74 0.0
02 21:15 W 11 16.09 Overcast SCT075 OVC100 13 5 59% 75.77 0.0
02 20:55 SW 17 16.09 Overcast OVC090 15 3 45% 75.77 0.0
02 20:35 SW 15 16.09 Overcast SCT075 OVC090 14 4 51% 75.77 0.0
02 20:15 SW 15 16.09 Overcast BKN075 OVC090 14 3 48% 75.77 0.0
02 19:55 S 13 16.09 Mostly Cloudy SCT100 BKN120 13 5 59% 75.79 0.0
02 19:35 S 9 16.09 Partly Cloudy SCT090 SCT120 14 4 51% 75.79 0.0
02 19:15 SW 13 16.09 Partly Cloudy SCT090 SCT120 15 3 45% 75.79 0.0
02 18:35 SW 13 16.09 Fair CLR 15 2 42% 75.84 0.0
02 18:15 SW 15 16.09 Fair CLR 16 2 39% 75.84 0.0
02 17:55 SW 15 16.09 Fair CLR 16 1 36% 75.87 0.0
02 17:35 SW 20 G 26 16.09 Partly Cloudy SCT100 15 1 39% 75.87 0.0
02 17:15 SW 19 16.09 Mostly Cloudy BKN100 15 1 39% 75.9 0.0
02 16:55 W 19 G 30 16.09 Partly Cloudy SCT100 16 1 36% 75.92 0.0
02 16:35 SW 24 G 31 16.09 Partly Cloudy SCT100 16 1 36% 75.92 0.0
02 16:15 W 26 G 31 16.09 Partly Cloudy SCT100 16 1 36% 75.95 0.0
02 15:35 W 17 16.09 Mostly Cloudy BKN100 15 0 36% 76 0.0
02 15:15 W 17 G 30 16.09 Partly Cloudy SCT100 16 0 34% 76.02 0.0
02 14:55 SW 15 16.09 Fair CLR 16 1 36% 76.05 0.0
02 14:35 SW 11 G 28 16.09 Partly Cloudy SCT080 15 0 36% 76.07 0.0
02 14:10 W 15 G 35 16.09 Partly Cloudy SCT080 15 0 36% 76.1 0.0
02 13:35 W 22 G 30 16.09 Partly Cloudy SCT080 14 0 39% 76.12 0.0
02 13:15 W 22 G 31 16.09 Fair CLR 14 0 39% 76.15 0.0
02 12:55 W 17 G 26 16.09 Fair CLR 14 -1 36% 76.17 0.0
02 12:35 W 17 16.09 Fair CLR 13 -1 38% 76.2 0.0
02 12:15 W 7 16.09 Fair CLR 13 -1 38% 76.2 0.0
02 11:55 W 20 G 30 16.09 Fair CLR 13 -2 36% 76.23 0.0
02 11:30 NW 15 G 31 16.09 Fair CLR 13 -1 38% 76.25 0.0
02 11:15 NW 17 G 26 16.09 Fair CLR 12 -3 35% 76.25 0.0
02 10:55 W 24 G 30 16.09 Fair CLR 12 -2 38% 76.28 0.0
02 10:35 W 24 G 33 16.09 Fair CLR 12 -2 38% 76.28 0.0
02 10:10 NW 9 16.09 Fair CLR 11 -3 38% 76.3 0.0
02 09:55 NW 17 16.09 Fair CLR 11 -2 41% 76.3 0.0
02 09:35 NW 17 16.09 Fair CLR 11 -1 44% 76.33 0.0
02 09:15 W 15 16.09 Fair CLR 10 -1 47% 8 76.33 0.0
02 08:55 W 11 16.09 Fair CLR 9 0 54% 8 76.33 0.0
02 08:35 W 6 16.09 Fair CLR 7 0 61% 76.33 0.0
02 07:55 Calm 16.09 Fair CLR 3 0 81% 76.33 0.0
02 07:35 Calm 16.09 Fair CLR 2 -1 81% 76.33 0.0
02 07:15 Calm 16.09 Fair CLR 1 -1 87% 76.33 0.0
02 06:55 Calm 16.09 Fair CLR 1 -1 87% 76.33 0.0
02 06:35 Calm 16.09 Fair CLR 0 -2 87% 76.33 0.0
02 06:15 Calm 16.09 Fair CLR 0 -2 87% 76.33 0.0
02 05:55 Calm 16.09 Fair CLR 1 -3 75% 76.33 0.0
02 05:35 Calm 16.09 Fair CLR 1 -2 81% 76.33 0.0
02 05:15 Calm 16.09 Fair CLR 1 -3 75% 76.33 0.0
02 04:55 Calm 16.09 Fair CLR 2 -3 70% 76.35 0.0
02 04:35 Calm 16.09 Fair CLR 2 -4 65% 76.35 0.0
02 04:15 SE 6 16.09 Fair CLR 2 -4 65% 76.35 0.0
02 03:55 Calm 16.09 Fair CLR 2 -4 65% 76.35 0.0
02 03:35 Calm 16.09 Fair CLR 2 -3 70% 76.35 0.0
02 03:15 Calm 16.09 Fair CLR 3 -5 56% 76.35 0.0
02 02:55 Calm 16.09 Fair CLR 3 -3 65% 76.35 0.0
02 02:35 Calm 16.09 Fair CLR 3 -3 65% 76.35 0.0
02 02:15 SE 6 16.09 Fair CLR 3 -3 65% 76.38 0.0
02 01:55 SE 7 16.09 Fair CLR 3 -3 65% 1 76.38 0.0
02 01:35 SE 7 16.09 Partly Cloudy SCT085 3 -2 70% 1 76.4 0.0
02 01:15 SE 9 16.09 Fair CLR 4 -2 65% 2 76.4 0.0
02 00:55 SE 7 16.09 Fair CLR 4 -2 65% 2 76.4 0.0
02 00:35 SE 6 16.09 Partly Cloudy SCT090 4 -1 70% 76.4 0.0
02 00:15 E 6 16.09 Fair CLR 4 -2 65% 76.4 0.0
01 23:55 E 6 16.09 Partly Cloudy SCT090 5 -2 61% 76.4 0.0
01 23:35 Calm 16.09 Partly Cloudy SCT090 4 -1 70% 76.4 0.0
01 23:15 Calm 16.09 Partly Cloudy SCT090 5 0 70% 76.4 0.0
01 22:55 Calm 16.09 Partly Cloudy SCT100 5 0 70% 76.4 0.0
01 22:35 Calm 16.09 Partly Cloudy SCT100 6 -1 61% 76.4 0.0
01 22:15 Calm 16.09 Partly Cloudy SCT100 6 0 66% 76.4 0.0
01 21:55 Calm 16.09 Partly Cloudy SCT100 6 0 66% 76.4 0.0
01 21:35 Calm 16.09 Partly Cloudy SCT100 7 0 61% 76.38 0.0
01 21:15 SW 6 16.09 Overcast OVC100 7 2 71% 76.38 0.0
01 20:55 Calm 16.09 Overcast OVC100 8 -4 43% 76.35 0.0
01 20:35 Calm 16.09 Overcast OVC100 8 -2 50% 76.35 0.0
01 20:15 Calm 16.09 Overcast OVC090 9 -2 46% 76.35 0.0
01 19:55 Calm 16.09 Overcast OVC090 9 -3 43% 76.33 0.0
01 19:35 Calm 16.09 Mostly Cloudy BKN090 10 -5 35% 76.33 0.0
01 19:15 N 7 16.09 Mostly Cloudy BKN090 10 -4 37% 9 76.33 0.0
01 18:55 Calm 16.09 Partly Cloudy SCT090 10 -5 35% 76.33 0.0
01 18:35 NW 7 16.09 Partly Cloudy SCT090 10 -5 35% 9 76.33 0.0
01 18:15 N 7 16.09 Partly Cloudy SCT090 10 -4 37% 9 76.33 0.0
01 17:55 N 11 16.09 Mostly Cloudy BKN090 10 -5 35% 9 76.33 0.0
01 17:35 NE 7 16.09 Mostly Cloudy SCT075 BKN090 10 -5 35% 9 76.33 0.0
01 17:15 NE 11 16.09 Overcast SCT075 OVC090 11 -4 35% 76.33 0.0
01 16:55 N 17 16.09 Overcast OVC080 10 -5 35% 8 76.33 0.0
01 16:35 N 15 16.09 Overcast OVC080 10 -5 35% 8 76.33 0.0
01 16:15 N 17 16.09 Mostly Cloudy BKN080 11 -5 32% 76.33 0.0
01 15:55 N 20 16.09 Mostly Cloudy BKN070 11 -5 32% 76.33 0.0
01 15:35 NW 11 16.09 Partly Cloudy SCT070 11 -5 32% 76.35 0.0
01 15:15 NE 11 16.09 Partly Cloudy SCT070 10 -4 37% 9 76.35 0.0
01 14:55 N 22 16.09 Partly Cloudy SCT070 10 -3 40% 7 76.35 0.0
01 14:35 NW 17 G 30 16.09 Partly Cloudy SCT070 10 -3 40% 8 76.35 0.0
01 14:15 N 15 G 31 16.09 Mostly Cloudy BKN070 10 -4 37% 8 76.38 0.0
01 13:55 NW 15 G 28 16.09 Mostly Cloudy BKN060 9 -4 40% 7 76.38 0.0
01 13:35 N 19 G 28 16.09 Mostly Cloudy BKN060 9 -3 43% 7 76.38 0.0
01 13:15 N 22 G 31 16.09 Partly Cloudy SCT060 9 -3 43% 6 76.38 0.0
01 12:55 N 15 G 30 16.09 Mostly Cloudy BKN060 7 -5 43% 5 76.38 0.0
01 12:35 N 17 G 28 16.09 Mostly Cloudy BKN060 7 -4 46% 4 76.4 0.0
01 12:15 NW 9 16.09 Partly Cloudy SCT050 8 -4 43% 7 76.4 0.0
01 11:55 N 17 G 28 16.09 Partly Cloudy SCT050 7 -3 49% 4 76.4 0.0
01 11:35 N 20 16.09 Partly Cloudy SCT050 7 -3 49% 4 76.4 0.0
01 11:15 N 20 G 30 16.09 Partly Cloudy SCT050 7 -4 46% 4 76.4 0.0
01 10:55 N 22 G 30 16.09 Fair CLR 6 -3 53% 2 76.4 0.0
01 10:35 NE 17 G 28 16.09 Fair CLR 6 -3 53% 3 76.4 0.0
01 10:15 NE 19 16.09 Fair CLR 6 -3 53% 3 76.4 0.0
01 09:55 N 20 G 26 16.09 Fair CLR 6 -3 53% 3 76.43 0.0
01 09:35 N 15 16.09 Fair CLR 5 -3 57% 2 76.43 0.0
01 09:15 N 19 16.09 Fair CLR 5 -3 57% 2 76.43 0.0
01 08:55 NE 19 16.09 Fair CLR 4 -4 56% 0 76.4 0.0
Date Time (cdt) Wind (kph) Vis. (km) Weather Sky Cond. Air Dwpt Max. Min. Relative Humidity Wind Chill (°C) Heat Index (°C) altimeter (cm) sea level (mb) 1 hr 3 hr 6 hr
6 hour
Temperature (ºC) Pressure Precipitation (cm)